Flag for Germany Weather past 2 weeks in Troisdorf, North Rhine-Westphalia, Germany

Now
75 °F

Sunny.


Feels Like: 78 °F
Forecast: 53 / 82 °F
Wind: 5 mph from Southeast

Location: Koeln / Bonn

Current Time: Aug 4, 2015 at 10:11:02 AM

Latest Report: Aug 4, 2015 at 9:20 AM


Visibility: 10 mi

Pressure: 29.86 "Hg

Humidity: 47%

Dew point: 54 °F

Location of TroisdorfLocation

Historic Weather in Troisdorf — Graph

°F

Troisdorf temperature yesterday

Maximum temperature yesterday: 91 °F (at 3:50 PM)
Minimum temperature yesterday: 59 °F (at 3:50 AM)
Average temperature yesterday: 77 °F

Past Weeks' High & Low Weather Summary

 TemperatureHumidityPressure
High91 °F (Aug 3, 3:50 PM)100% (Jul 31, 4:20 AM)30.15 "Hg (Jul 31, 4:20 AM)
Low48 °F (Jul 26, 3:50 AM)20% (Aug 3, 5:20 PM)29.56 "Hg (Jul 25, 6:50 AM)
Average65 °F66%29.91 "Hg
* Reported Jul 20 8:20 AM — Aug 4 8:50 AM, Troisdorf, Weather by CustomWeather, © 2015

Note: Actual official high and low records may vary slightly from our data, if they occured in-between our weather recording intervals... More about our weather records

Advertising

Troisdorf weather history for previous 24 hours

 ConditionsComfort  
Time TempWeatherWind HumidityBarometerVisibility
8:50 AM
Tue, Aug 4
75 °FScattered showers. Broken clouds.5 mph47%29.86 "HgN/A
8:20 AM75 °FSprinkles. Broken clouds.5 mph44%29.86 "HgN/A
7:50 AM73 °FSprinkles. Broken clouds.2 mph47%29.86 "HgN/A
7:20 AM73 °FSprinkles. Broken clouds.6 mph47%29.83 "HgN/A
6:50 AM72 °FScattered showers. Partly cloudy.7 mph50%29.83 "HgN/A
6:20 AM72 °FClear.9 mph50%29.83 "Hg10 mi
5:50 AM72 °FClear.7 mph50%29.83 "Hg10 mi
5:20 AM72 °FClear.7 mph50%29.83 "Hg10 mi
4:50 AM72 °FClear.7 mph50%29.83 "Hg10 mi
4:20 AM72 °FClear.7 mph50%29.83 "Hg10 mi
3:50 AM72 °FClear.6 mph50%29.86 "Hg10 mi
3:20 AM73 °FClear.8 mph47%29.86 "Hg10 mi
2:50 AM73 °FClear.7 mph47%29.86 "Hg10 mi
2:20 AM73 °FClear.6 mph47%29.89 "Hg10 mi
1:50 AM73 °FClear.3 mph47%29.89 "Hg10 mi
1:20 AM73 °FClear.3 mph47%29.89 "Hg10 mi
12:50 AM75 °FClear.6 mph44%29.89 "Hg10 mi
12:20 AM75 °FClear.6 mph44%29.92 "Hg10 mi
11:50 PM
Mon, Aug 3
77 °FClear.6 mph42%29.92 "Hg10 mi
11:20 PM77 °FClear.6 mph44%29.92 "Hg10 mi
10:50 PM79 °FClear.5 mph42%29.92 "Hg10 mi
10:20 PM75 °FClear.3 mph47%29.92 "Hg10 mi
9:50 PM79 °FSunny.7 mph39%29.92 "Hg10 mi
9:20 PM77 °FSunny.2 mph44%29.92 "Hg10 mi
8:50 PM82 °FSunny.3 mph35%29.92 "Hg10 mi
8:20 PM86 °FSunny.3 mph31%29.92 "Hg10 mi
7:50 PM88 °FSunny.6 mph27%29.92 "Hg10 mi
7:20 PM90 °FSunny.7 mph22%29.92 "Hg10 mi
6:50 PM91 °FSunny.7 mph21%29.92 "Hg10 mi
6:20 PM91 °FSunny.8 mph20%29.92 "Hg10 mi
5:50 PM91 °FPassing clouds.5 mph23%29.92 "HgN/A
5:20 PM91 °FPassing clouds.7 mph20%29.95 "HgN/A
4:50 PM91 °FSunny.8 mph23%29.95 "Hg10 mi
4:20 PM90 °FSunny.9 mph24%29.95 "Hg10 mi
3:50 PM91 °FSunny.12 mph21%29.95 "Hg10 mi
3:20 PM90 °FSunny.12 mph24%29.98 "Hg10 mi
2:50 PM90 °FSunny.9 mph24%29.95 "Hg10 mi
2:20 PM90 °FSunny.13 mph22%29.98 "Hg10 mi
1:50 PM88 °FSunny.9 mph24%29.98 "Hg10 mi
1:20 PM86 °FSunny.14 mph27%29.98 "Hg10 mi
12:50 PM86 °FSunny.10 mph27%29.98 "Hg10 mi
12:20 PM86 °FSunny.10 mph31%29.98 "Hg10 mi
11:50 AM84 °FSunny.12 mph35%30.01 "Hg10 mi
11:20 AM82 °FSunny.9 mph32%30.01 "Hg10 mi
10:50 AM79 °FSunny.10 mph42%30.01 "Hg10 mi
10:20 AM77 °FSunny.12 mph42%30.01 "Hg10 mi
Weather by CustomWeather, © 2015

See weather overviewHow to use our weather pages